This is the latest recevied weather packets stored in our database for station/object DELTON-WX. If no packets are shown the sender has not sent any weather packets the latest 10 day(s).
| Time | Temp. | Humidity | Pressure | Rain* | Wind** | Luminosity | Snow |
|---|---|---|---|---|---|---|---|
| 1777484745 | 10° C | 83% | 978.7 hPa | 0 mm | - | - | - |
| 1777483860 | 10° C | 79% | 978.4 hPa | 0 mm | - | - | - |
| 1777482945 | 11.11° C | 79% | 978.5 hPa | 0 mm | - | - | - |
| 1777482070 | 10.56° C | 79% | 978.5 hPa | 0 mm | - | - | - |
| 1777481145 | 11.11° C | 80% | 979 hPa | 0 mm | - | - | - |
| 1777480264 | 9.44° C | 82% | 978.9 hPa | 0 mm | - | - | - |
| 1777479345 | 10° C | 82% | 978.9 hPa | 0 mm | - | - | - |
| 1777478475 | 10° C | 82% | 978.9 hPa | 0 mm | - | - | - |
| 1777477545 | 10° C | 84% | 979.5 hPa | 0 mm | - | - | - |
| 1777476661 | 10° C | 79% | 980.2 hPa | 0 mm | - | - | - |
| 1777475745 | 10.56° C | 79% | 980.2 hPa | 0 mm | - | - | - |
| 1777474873 | 10.56° C | 79% | 980.2 hPa | 0 mm | - | - | - |
| 1777473945 | 10.56° C | 83% | 979.7 hPa | 0 mm | - | - | - |
| 1777473061 | 10.56° C | 86% | 979.6 hPa | 0 mm | - | - | - |
| 1777472146 | 10° C | 86% | 979.6 hPa | 0 mm | - | - | - |
| 1777471281 | 10° C | 86% | 979.6 hPa | 0 mm | - | - | - |
| 1777470345 | 9.44° C | 85% | 980.2 hPa | 0 mm | - | - | - |
| 1777469464 | 9.44° C | 85% | 980.2 hPa | 0 mm | - | - | - |
| 1777468545 | 8.89° C | 85% | 980.1 hPa | 0 mm | - | - | - |
| 1777467673 | 8.89° C | 85% | 980.1 hPa | 0 mm | - | - | - |
| 1777466745 | 8.89° C | 87% | 980.2 hPa | 0 mm | - | - | - |
| 1777465864 | 9.44° C | 89% | 980.1 hPa | 0 mm | - | - | - |
| 1777464944 | 9.44° C | 89% | 980.1 hPa | 0 mm | - | - | - |
| 1777464078 | 9.44° C | 89% | 980.1 hPa | 0 mm | - | - | - |
| 1777463145 | 9.44° C | 90% | 979.5 hPa | 0 mm | - | - | - |
* Rain latest hour (hover to see other rain measurements)
** Current wind speed in m/s (hover to see current wind gust speed)